Regional Weather Roundup
Issued by NWS

Home | Current Version | Previous Version | Text Only | Print | Product List | Glossary Off
Versions: 1 2 3 4 5 6 7 8 9 10 11 12 13 14 15 16 17 18 19 20 21 22 23 24 25 26 27 28 29 30 31 32 33 34 35 36 37 38 39 40 41 42 43 44 45 46 47 48 49 50

000
ASUS45 KCYS 232310
RWRWY

WYOMING REGIONAL WEATHER ROUNDUP
NATIONAL WEATHER SERVICE CHEYENNE WY
500 PM MDT WED JUL 23 2014

NOTE:  "FAIR" INDICATES FEW OR NO CLOUDS BELOW 12,000 FEET
WITH NO SIGNIFICANT WEATHER AND/OR OBSTRUCTIONS TO VISIBILITY.

WYZ001-240000-
YELLOWSTONE NATIONAL PARK

CITY           SKY/WX    TMP DP  RH WIND       PRES   REMARKS
LK YELLOWSTONE   N/A     79  33  19 W8G18     30.37F
W YELLOWSTONE  NOT AVBL

$$
WYZ002>013-054>058-071-098>099-240000-
NORTHERN WYOMING

CITY           SKY/WX    TMP DP  RH WIND       PRES   REMARKS
JACKSON        SUNNY     90  32  12 S8        30.21F
CODY           NOT AVBL
GREYBULL       MOSUNNY  100  37  11 SE7       29.95F HX  95
WORLAND        MOSUNNY  103  34   9 SW14      29.96F HX  96
SHERIDAN       MOSUNNY   95  59  30 SE5       29.99F HX  94
BUFFALO        MOSUNNY   99  43  14 SE12      30.06F HX  95
GILLETTE       SUNNY     93  58  30 SE20G28   30.06F HX  92
HULETT         FAIR      90  61  37 MISG      30.11
NEWCASTLE      FAIR      91  46  21 SE21      30.12

$$
WYZ014>020-022>026-101>103-240000-
CENTRAL WYOMING

CITY           SKY/WX    TMP DP  RH WIND       PRES   REMARKS
BIG PINEY      SUNNY     90  38  16 W9        30.27F
PINEDALE       PTCLDY    88  32  13 W14       30.29F
DUBOIS         FAIR      86  30  13 W12       30.26F
LANDER         SUNNY     95  32  11 W16G26    30.11F HX  90
RIVERTON       SUNNY     97  38  13 VRB5G17   30.10F HX  92
CASPER         PTSUNNY   95  36  12 VRB5      30.10F HX  90
DOUGLAS        MOSUNNY   90  56  31 S20G25    30.13F

$$
WYZ021-027>030-104>119-240000-
SOUTHERN WYOMING

CITY           SKY/WX    TMP DP  RH WIND       PRES   REMARKS
EVANSTON       SUNNY     91  37  15 SW16G24   30.27F
KEMMERER       PTCLDY    90  32  12 SW23G30   30.29F
FORT BRIDGER   FAIR      92  37  14 S15G30    30.30F
ROCK SPRINGS   MOSUNNY   90  28  11 SW15      30.26
DIXON          FAIR      95  29   9 W12G18    30.27F
RAWLINS        MOSUNNY   92  20   7 SW16G26   30.27F
SARATOGA       FAIR      93  30  10 SW5       30.31F
LARAMIE        PTSUNNY   76  56  49 SE22      30.37F
CHEYENNE       MOSUNNY   78  63  59 SW18      30.33R
TORRINGTON     SUNNY     91  63  39 SE14      30.12F HX  92
PINE BLUFFS    FAIR      86  63  45 S13G22    30.24S

$$


USA.gov is the U.S. government's official web portal to all federal, state and local government web resources and services.